HVN10 VVTS-LFPG

Flight info

Callsign HVN10
Flight time N/A
Altitude 30000
Route SAPEN5F SAPEN R468 ELMOP P629 BKK P646 DOPID/N0506F320 P646 JJS B209 KKJ L333 KABEL/N0499F340 L333 MERUN L750 RANAH B801 NINOP A909 ABEKO/N0486F360 A909 RODAR M11 ERLEV T923 SUBUT T916 MATAL DCT TABAS DCT REBLO UM11 CRM UL746 ODERO/N0474F380 DCT OPT DCT ENIMA DCT TEGRI DCT GAZDA DCT ARSIN DCT RENKA L610 STAUB/N0454F240 L610 MAMOR DCT ASPAT DCT VIBOM DCT BETEX DCT IDOSA DCT TOLVU/N0479F390 DCT RAPOR DCT VEDUS
Aircraft A339/H-SADE1E2E3GHIJ3J5M1P2RWXY/LB2D1

Departure

Time 2026-05-08 07:15
Airport Tan Son Nhat International Airport (VVTS)

Arrival

Time N/A
Airport Charles de Gaulle International Airport (LFPG)
Time Latitude Longitude Altitude Speed Heading
2026-05-08 06:54 10.81736 106.66309 38 ft 0 kts 160°
2026-05-08 07:04 10.81741 106.66307 38 ft 2 kts 160°
2026-05-08 07:04 10.81755 106.66302 38 ft 2 kts 160°
2026-05-08 07:04 10.81769 106.66296 38 ft 2 kts 160°
2026-05-08 07:05 10.81781 106.66293 37 ft 0 kts 160°
2026-05-08 07:05 10.81792 106.66288 37 ft 2 kts 147°
2026-05-08 07:05 10.81803 106.66277 37 ft 2 kts 125°
2026-05-08 07:05 10.81810 106.66264 37 ft 2 kts 107°
2026-05-08 07:06 10.81813 106.66249 37 ft 2 kts 88°
2026-05-08 07:06 10.81811 106.66235 37 ft 0 kts 70°
2026-05-08 07:06 10.81809 106.66231 37 ft 0 kts 68°
2026-05-08 07:08 10.81810 106.66234 37 ft 1 kts 68°
2026-05-08 07:09 10.81818 106.66255 37 ft 4 kts 69°
2026-05-08 07:09 10.81834 106.66297 36 ft 7 kts 70°
2026-05-08 07:09 10.81853 106.66350 36 ft 8 kts 69°
2026-05-08 07:09 10.81874 106.66407 37 ft 9 kts 69°
2026-05-08 07:10 10.81898 106.66471 37 ft 10 kts 69°
2026-05-08 07:10 10.81925 106.66542 37 ft 10 kts 69°
2026-05-08 07:10 10.81955 106.66621 37 ft 13 kts 69°
2026-05-08 07:10 10.81990 106.66711 38 ft 13 kts 69°
2026-05-08 07:11 10.82023 106.66797 39 ft 11 kts 69°
2026-05-08 07:11 10.82056 106.66872 40 ft 10 kts 55°
2026-05-08 07:11 10.82107 106.66923 41 ft 10 kts 38°
2026-05-08 07:11 10.82160 106.66966 42 ft 9 kts 39°
2026-05-08 07:12 10.82213 106.67003 43 ft 8 kts 18°
2026-05-08 07:12 10.82275 106.67001 43 ft 9 kts 344°
2026-05-08 07:12 10.82329 106.66963 42 ft 10 kts 308°
2026-05-08 07:12 10.82348 106.66897 41 ft 10 kts 258°
2026-05-08 07:13 10.82332 106.66853 40 ft 0 kts 249°
2026-05-08 07:14 10.82323 106.66828 40 ft 16 kts 249°
2026-05-08 07:14 10.82203 106.66505 40 ft 80 kts 249°
2026-05-08 07:14 10.81928 106.65775 37 ft 136 kts 249°
2026-05-08 07:14 10.81526 106.64716 34 ft 184 kts 249°
2026-05-08 07:15 10.81026 106.63411 291 ft 202 kts 250°
2026-05-08 07:15 10.80539 106.62102 874 ft 200 kts 250°
2026-05-08 07:15 10.80041 106.60770 1427 ft 202 kts 250°
2026-05-08 07:15 10.79545 106.59447 1895 ft 203 kts 250°
2026-05-08 07:16 10.79030 106.58070 2076 ft 211 kts 250°
2026-05-08 07:16 10.78494 106.56641 2251 ft 220 kts 250°
2026-05-08 07:16 10.77940 106.55159 2427 ft 230 kts 250°
2026-05-08 07:16 10.77396 106.53592 2618 ft 239 kts 261°
2026-05-08 07:17 10.77556 106.51909 2793 ft 246 kts 300°
2026-05-08 07:17 10.78532 106.50459 3012 ft 253 kts 312°
2026-05-08 07:17 10.79707 106.49072 3224 ft 265 kts 312°
2026-05-08 07:17 10.80909 106.47613 3437 ft 276 kts 310°
2026-05-08 07:18 10.82121 106.46059 3717 ft 284 kts 309°
2026-05-08 07:18 10.83320 106.44460 4134 ft 285 kts 308°
2026-05-08 07:18 10.84523 106.42820 4542 ft 287 kts 308°
2026-05-08 07:18 10.85702 106.41193 4940 ft 289 kts 308°
2026-05-08 07:19 10.86886 106.39548 5301 ft 290 kts 308°
2026-05-08 07:19 10.88084 106.37875 5663 ft 291 kts 308°
2026-05-08 07:19 10.89272 106.36214 6017 ft 292 kts 308°
2026-05-08 07:19 10.90472 106.34535 6361 ft 293 kts 308°
2026-05-08 07:20 10.91682 106.32842 6736 ft 294 kts 308°
2026-05-08 07:20 10.92877 106.31168 7091 ft 295 kts 308°
2026-05-08 07:20 10.94092 106.29463 7451 ft 296 kts 308°
2026-05-08 07:20 10.95301 106.27770 7803 ft 297 kts 308°
2026-05-08 07:21 10.96512 106.26074 8148 ft 299 kts 308°
2026-05-08 07:21 10.97737 106.24359 8472 ft 300 kts 307°
2026-05-08 07:21 10.98967 106.22633 8785 ft 302 kts 307°
2026-05-08 07:21 11.00194 106.20913 9085 ft 303 kts 307°
2026-05-08 07:22 11.01416 106.19132 9399 ft 306 kts 303°
2026-05-08 07:22 11.02440 106.17238 9718 ft 308 kts 296°
2026-05-08 07:22 11.03280 106.15231 10009 ft 312 kts 293°
2026-05-08 07:22 11.04097 106.13139 10167 ft 320 kts 293°
2026-05-08 07:23 11.04926 106.11002 10331 ft 329 kts 292°
2026-05-08 07:23 11.05776 106.08817 10496 ft 338 kts 293°
2026-05-08 07:23 11.06654 106.06580 10663 ft 346 kts 293°
2026-05-08 07:23 11.07558 106.04276 10831 ft 355 kts 292°
2026-05-08 07:24 11.08481 106.01926 10996 ft 364 kts 292°
2026-05-08 07:24 11.09442 105.99483 11163 ft 373 kts 292°
2026-05-08 07:24 11.10347 105.96965 11317 ft 383 kts 285°
2026-05-08 07:24 11.10745 105.94268 11478 ft 393 kts 272°
2026-05-08 07:25 11.10559 105.91472 11705 ft 399 kts 262°
2026-05-08 07:25 11.10141 105.88686 12063 ft 402 kts 261°
2026-05-08 07:25 11.09269 105.83051 12779 ft 406 kts 262°
2026-05-08 07:26 11.08844 105.80193 13124 ft 409 kts 262°
2026-05-08 07:26 11.08425 105.77322 13470 ft 410 kts 262°
2026-05-08 07:26 11.08010 105.74461 13801 ft 412 kts 262°
2026-05-08 07:26 11.07605 105.71559 14126 ft 414 kts 264°
2026-05-08 07:27 11.07587 105.68638 14437 ft 416 kts 276°
2026-05-08 07:27 11.08106 105.65735 14769 ft 417 kts 287°
2026-05-08 07:27 11.09017 105.62964 15089 ft 418 kts 290°
2026-05-08 07:27 11.10014 105.60170 15397 ft 421 kts 290°
2026-05-08 07:28 11.11019 105.57369 15707 ft 423 kts 290°
2026-05-08 07:28 11.12020 105.54550 16013 ft 424 kts 290°
2026-05-08 07:28 11.13019 105.51723 16304 ft 426 kts 290°
2026-05-08 07:28 11.14019 105.48872 16588 ft 428 kts 290°
2026-05-08 07:29 11.15012 105.46036 16879 ft 431 kts 290°
2026-05-08 07:29 11.16021 105.43141 17184 ft 432 kts 290°
2026-05-08 07:29 11.17028 105.40249 17467 ft 434 kts 290°
2026-05-08 07:29 11.18037 105.37350 17740 ft 436 kts 290°
2026-05-08 07:30 11.19059 105.34410 18019 ft 438 kts 289°
2026-05-08 07:30 11.20069 105.31505 18292 ft 440 kts 289°
2026-05-08 07:30 11.21098 105.28539 18564 ft 442 kts 289°
2026-05-08 07:30 11.22111 105.25621 18816 ft 444 kts 289°
2026-05-08 07:31 11.23148 105.22630 19080 ft 446 kts 289°
2026-05-08 07:31 11.24180 105.19657 19349 ft 448 kts 289°
2026-05-08 07:31 11.25212 105.16684 19610 ft 450 kts 289°
2026-05-08 07:31 11.26256 105.13673 19865 ft 452 kts 289°
2026-05-08 07:32 11.27310 105.10635 20114 ft 453 kts 289°
2026-05-08 07:32 11.28359 105.07606 20346 ft 454 kts 289°
2026-05-08 07:32 11.29397 105.04603 20557 ft 456 kts 289°
2026-05-08 07:32 11.30455 105.01546 20780 ft 459 kts 289°
2026-05-08 07:33 11.31521 104.98464 21010 ft 460 kts 289°
2026-05-08 07:33 11.32590 104.95373 21235 ft 462 kts 289°
2026-05-08 07:33 11.33735 104.92354 21439 ft 463 kts 293°
2026-05-08 07:33 11.35116 104.89358 21651 ft 465 kts 297°
2026-05-08 07:34 11.36689 104.86498 21862 ft 466 kts 302°
2026-05-08 07:34 11.38412 104.83666 22077 ft 468 kts 302°
2026-05-08 07:34 11.40132 104.80885 22282 ft 469 kts 302°
2026-05-08 07:34 11.41892 104.78042 22486 ft 471 kts 302°
2026-05-08 07:35 11.43622 104.75240 22676 ft 472 kts 302°
2026-05-08 07:35 11.45379 104.72387 22856 ft 473 kts 302°
2026-05-08 07:35 11.47111 104.69571 23029 ft 475 kts 302°
2026-05-08 07:35 11.48871 104.66707 23215 ft 477 kts 302°
2026-05-08 07:36 11.50644 104.63818 23414 ft 478 kts 302°
2026-05-08 07:36 11.52397 104.60959 23618 ft 479 kts 302°
2026-05-08 07:36 11.54166 104.58073 23822 ft 480 kts 302°
2026-05-08 07:36 11.55942 104.55176 24028 ft 481 kts 302°
2026-05-08 07:37 11.57717 104.52278 24232 ft 482 kts 302°
2026-05-08 07:37 11.59485 104.49390 24431 ft 483 kts 302°
2026-05-08 07:37 11.61265 104.46481 24625 ft 483 kts 302°
2026-05-08 07:37 11.63042 104.43575 24817 ft 484 kts 302°
2026-05-08 07:38 11.64835 104.40644 25010 ft 485 kts 302°
2026-05-08 07:38 11.66599 104.37758 25198 ft 486 kts 302°
2026-05-08 07:38 11.68402 104.34808 25386 ft 486 kts 302°
2026-05-08 07:38 11.70197 104.31868 25559 ft 487 kts 302°
2026-05-08 07:39 11.71967 104.28968 25726 ft 488 kts 302°
2026-05-08 07:39 11.73779 104.25999 25903 ft 489 kts 302°
2026-05-08 07:39 11.75569 104.23063 26077 ft 489 kts 302°
2026-05-08 07:39 11.77354 104.20137 26242 ft 490 kts 302°
2026-05-08 07:40 11.79154 104.17188 26411 ft 491 kts 302°
2026-05-08 07:40 11.80976 104.14204 26587 ft 492 kts 302°
2026-05-08 07:40 11.82781 104.11246 26753 ft 491 kts 302°
2026-05-08 07:40 11.84575 104.08302 26894 ft 492 kts 302°
2026-05-08 07:41 11.86381 104.05336 27034 ft 493 kts 302°
2026-05-08 07:41 11.88209 104.02331 27190 ft 494 kts 302°
2026-05-08 07:41 11.90026 103.99345 27347 ft 495 kts 302°
2026-05-08 07:41 11.91831 103.96380 27498 ft 496 kts 302°
2026-05-08 07:42 11.93653 103.93388 27649 ft 496 kts 302°
2026-05-08 07:42 11.95465 103.90414 27798 ft 496 kts 302°
2026-05-08 07:42 11.97287 103.87420 27945 ft 496 kts 302°
2026-05-08 07:42 11.99126 103.84395 28081 ft 498 kts 302°
2026-05-08 07:43 12.00951 103.81390 28225 ft 498 kts 302°
2026-05-08 07:43 12.02770 103.78395 28376 ft 499 kts 302°
2026-05-08 07:43 12.04612 103.75362 28531 ft 500 kts 302°
2026-05-08 07:43 12.06438 103.72356 28685 ft 501 kts 302°
2026-05-08 07:44 12.08279 103.69321 28839 ft 501 kts 302°
2026-05-08 07:44 12.10112 103.66301 28987 ft 501 kts 302°
2026-05-08 07:44 12.11948 103.63272 29132 ft 502 kts 302°
2026-05-08 07:44 12.13778 103.60253 29303 ft 502 kts 302°
2026-05-08 07:45 12.15620 103.57214 29478 ft 502 kts 302°
2026-05-08 07:45 12.17444 103.54201 29634 ft 502 kts 302°
2026-05-08 07:45 12.19295 103.51142 29781 ft 503 kts 302°
2026-05-08 07:45 12.21133 103.48106 29909 ft 504 kts 302°
2026-05-08 07:46 12.22977 103.45060 29941 ft 504 kts 302°
2026-05-08 07:46 12.26670 103.38955 29969 ft 504 kts 302°
2026-05-08 07:47 12.30329 103.32902 29943 ft 503 kts 302°
2026-05-08 07:47 12.34012 103.26806 29938 ft 503 kts 302°
2026-05-08 07:48 12.37677 103.20737 29944 ft 504 kts 302°
2026-05-08 07:48 12.41365 103.14622 29932 ft 504 kts 302°
2026-05-08 07:49 12.45041 103.08521 29870 ft 504 kts 302°
2026-05-08 07:49 12.48707 103.02434 29692 ft 504 kts 302°
2026-05-08 07:49 12.50547 102.99380 29516 ft 505 kts 302°
2026-05-08 07:50 12.52400 102.96301 29438 ft 505 kts 302°
2026-05-08 07:50 12.56067 102.90205 29656 ft 503 kts 302°
2026-05-08 07:50 12.57893 102.87171 29780 ft 503 kts 302°
2026-05-08 07:51 12.59746 102.84091 29879 ft 505 kts 302°
2026-05-08 07:51 12.63417 102.77979 29921 ft 506 kts 302°
2026-05-08 07:52 12.67084 102.71870 29902 ft 506 kts 302°
2026-05-08 07:52 12.70775 102.65717 29903 ft 506 kts 302°
2026-05-08 07:53 12.74460 102.59570 29911 ft 505 kts 302°
2026-05-08 07:53 12.77920 102.53359 29930 ft 506 kts 297°
2026-05-08 07:54 12.80786 102.46764 29935 ft 507 kts 291°
2026-05-08 07:54 12.83337 102.40052 29934 ft 507 kts 291°
2026-05-08 07:55 12.85887 102.33313 29908 ft 507 kts 291°
2026-05-08 07:55 12.88435 102.26603 29887 ft 507 kts 291°
2026-05-08 07:56 12.91004 102.19848 29875 ft 507 kts 291°
2026-05-08 07:56 12.93560 102.13119 29865 ft 507 kts 291°
2026-05-08 07:57 12.96105 102.06412 29858 ft 507 kts 291°
2026-05-08 07:57 12.98656 101.99680 29848 ft 507 kts 291°
2026-05-08 07:58 13.01209 101.92941 29840 ft 507 kts 291°
2026-05-08 07:58 13.03756 101.86208 29838 ft 508 kts 291°
2026-05-08 07:59 13.06302 101.79474 29841 ft 508 kts 291°
2026-05-08 07:59 13.08856 101.72719 29843 ft 508 kts 291°
2026-05-08 08:00 13.11411 101.65955 29841 ft 508 kts 291°
2026-05-08 08:00 13.13950 101.59229 29838 ft 508 kts 291°
2026-05-08 08:01 13.16497 101.52470 29834 ft 507 kts 291°
2026-05-08 08:01 13.19049 101.45697 29831 ft 508 kts 291°
2026-05-08 08:02 13.21572 101.38989 29831 ft 508 kts 291°
2026-05-08 08:02 13.24114 101.32229 29833 ft 508 kts 291°
2026-05-08 08:03 13.26658 101.25450 29832 ft 508 kts 291°
2026-05-08 08:03 13.29841 101.19037 29829 ft 507 kts 303°
2026-05-08 08:04 13.34235 101.13367 29826 ft 506 kts 315°
2026-05-08 08:04 13.39324 101.08361 29824 ft 507 kts 317°
2026-05-08 08:05 13.44461 101.03416 29820 ft 507 kts 317°
2026-05-08 08:05 13.49597 100.98441 29815 ft 507 kts 317°
2026-05-08 08:06 13.54732 100.93448 29813 ft 507 kts 317°
2026-05-08 08:06 13.59823 100.88487 29812 ft 507 kts 317°
2026-05-08 08:07 13.64948 100.83491 29812 ft 507 kts 317°
2026-05-08 08:07 13.70088 100.78476 29812 ft 507 kts 317°
2026-05-08 08:08 13.75192 100.73492 29812 ft 506 kts 317°
2026-05-08 08:08 13.80304 100.68501 29812 ft 506 kts 317°
2026-05-08 08:09 13.85392 100.63445 29811 ft 506 kts 314°
2026-05-08 08:09 13.89864 100.57851 29812 ft 507 kts 306°
2026-05-08 08:10 13.93514 100.51644 29814 ft 507 kts 298°
2026-05-08 08:10 13.96777 100.45251 29813 ft 507 kts 298°
2026-05-08 08:11 14.00058 100.38785 29813 ft 507 kts 298°
2026-05-08 08:11 14.03318 100.32381 29813 ft 507 kts 298°
2026-05-08 08:12 14.06603 100.25939 29810 ft 507 kts 298°
2026-05-08 08:12 14.09881 100.19511 29802 ft 508 kts 298°
2026-05-08 08:13 14.13167 100.13064 29792 ft 508 kts 298°
2026-05-08 08:13 14.16434 100.06645 29789 ft 507 kts 298°
2026-05-08 08:14 14.19706 100.00214 29790 ft 507 kts 298°
2026-05-08 08:14 14.22984 99.93765 29791 ft 507 kts 298°
2026-05-08 08:15 14.26246 99.87340 29793 ft 507 kts 298°
2026-05-08 08:15 14.29526 99.80876 29793 ft 507 kts 298°
2026-05-08 08:16 14.32796 99.74425 29794 ft 508 kts 298°
2026-05-08 08:16 14.36058 99.67982 29797 ft 508 kts 298°
2026-05-08 08:17 14.39321 99.61532 29802 ft 508 kts 298°
2026-05-08 08:17 14.42568 99.55105 29807 ft 508 kts 298°
2026-05-08 08:18 14.45856 99.48606 29812 ft 509 kts 298°
2026-05-08 08:18 14.49118 99.42158 29833 ft 509 kts 298°
2026-05-08 08:19 14.52384 99.35686 29874 ft 509 kts 298°
2026-05-08 08:19 14.55653 99.29202 29842 ft 509 kts 298°
2026-05-08 08:20 14.58918 99.22716 29727 ft 510 kts 298°
2026-05-08 08:20 14.62173 99.16248 29780 ft 509 kts 298°
2026-05-08 08:21 14.65433 99.09766 29861 ft 510 kts 298°
2026-05-08 08:21 14.68695 99.03270 29870 ft 511 kts 298°
2026-05-08 08:22 14.71966 98.96753 29865 ft 511 kts 298°
2026-05-08 08:22 14.75233 98.90237 29874 ft 511 kts 298°
2026-05-08 08:23 14.78505 98.83709 29886 ft 511 kts 298°
2026-05-08 08:23 14.81763 98.77200 29889 ft 511 kts 298°
2026-05-08 08:24 14.85016 98.70698 29861 ft 511 kts 298°
2026-05-08 08:24 14.88264 98.64198 29884 ft 511 kts 298°
2026-05-08 08:25 14.91521 98.57674 29896 ft 511 kts 298°
2026-05-08 08:25 14.94775 98.51152 29876 ft 512 kts 297°
2026-05-08 08:26 14.98039 98.44601 29855 ft 512 kts 298°
2026-05-08 08:26 15.01304 98.38044 29857 ft 512 kts 298°
2026-05-08 08:27 15.04565 98.31491 29873 ft 512 kts 297°
2026-05-08 08:27 15.07799 98.24980 29889 ft 511 kts 297°
2026-05-08 08:28 15.11058 98.18397 29893 ft 511 kts 297°
2026-05-08 08:28 15.14251 98.11832 29881 ft 511 kts 297°
2026-05-08 08:29 15.17435 98.05264 29862 ft 511 kts 297°
2026-05-08 08:29 15.20619 97.98701 29849 ft 511 kts 297°
2026-05-08 08:30 15.23799 97.92143 29843 ft 511 kts 297°
2026-05-08 08:30 15.28580 97.82270 29829 ft 512 kts 297°
2026-05-08 08:31 15.31759 97.75695 29819 ft 512 kts 297°
2026-05-08 08:31 15.34943 97.69106 29812 ft 512 kts 297°
2026-05-08 08:32 15.38124 97.62515 29810 ft 512 kts 297°
2026-05-08 08:32 15.41294 97.55940 29809 ft 512 kts 297°
2026-05-08 08:33 15.44482 97.49324 29809 ft 512 kts 297°
2026-05-08 08:33 15.47787 97.42796 29809 ft 512 kts 298°
2026-05-08 08:34 15.51115 97.36319 29809 ft 512 kts 298°
2026-05-08 08:34 15.54459 97.29781 29809 ft 512 kts 298°
2026-05-08 08:35 15.57780 97.23264 29809 ft 512 kts 298°
2026-05-08 08:35 15.61096 97.16743 29809 ft 512 kts 298°
2026-05-08 08:36 15.64405 97.10231 29810 ft 511 kts 298°
2026-05-08 08:36 15.67722 97.03694 29810 ft 512 kts 297°
2026-05-08 08:37 15.71011 96.97206 29810 ft 512 kts 297°
2026-05-08 08:37 15.74320 96.90668 29810 ft 512 kts 297°
2026-05-08 08:38 15.77642 96.84100 29810 ft 512 kts 297°
2026-05-08 08:38 15.80944 96.77568 29809 ft 513 kts 297°
2026-05-08 08:39 15.84252 96.71019 29809 ft 513 kts 297°
2026-05-08 08:39 15.87542 96.64503 29808 ft 512 kts 297°
2026-05-08 08:40 15.90864 96.57917 29808 ft 513 kts 297°
2026-05-08 08:40 15.94160 96.51375 29807 ft 513 kts 297°
2026-05-08 08:41 15.97473 96.44791 29807 ft 513 kts 297°
2026-05-08 08:41 16.00767 96.38241 29807 ft 513 kts 297°
2026-05-08 08:42 16.04083 96.31641 29801 ft 514 kts 297°
2026-05-08 08:42 16.07378 96.25076 29791 ft 514 kts 297°
2026-05-08 08:43 16.10700 96.18453 29785 ft 514 kts 297°
2026-05-08 08:43 16.13996 96.11867 29784 ft 513 kts 297°
2026-05-08 08:44 16.17270 96.05323 29785 ft 513 kts 297°
2026-05-08 08:44 16.20580 95.98704 29786 ft 514 kts 297°
2026-05-08 08:45 16.23868 95.92122 29786 ft 514 kts 297°
2026-05-08 08:45 16.27149 95.85550 29784 ft 514 kts 297°
2026-05-08 08:46 16.30445 95.78942 29782 ft 514 kts 297°
2026-05-08 08:46 16.33734 95.72340 29782 ft 514 kts 297°
2026-05-08 08:47 16.37000 95.65778 29782 ft 514 kts 297°
2026-05-08 08:47 16.40300 95.59139 29782 ft 514 kts 296°
2026-05-08 08:48 16.43555 95.52586 29782 ft 513 kts 296°
2026-05-08 08:48 16.46828 95.45990 29782 ft 512 kts 296°
2026-05-08 08:49 16.50092 95.39404 29781 ft 511 kts 296°
2026-05-08 08:49 16.53342 95.32837 29781 ft 511 kts 296°
2026-05-08 08:50 16.56590 95.26273 29782 ft 510 kts 296°
2026-05-08 08:50 16.59840 95.19690 29784 ft 510 kts 296°
2026-05-08 08:51 16.63091 95.13112 29785 ft 510 kts 296°
2026-05-08 08:51 16.66331 95.06553 29786 ft 509 kts 296°
2026-05-08 08:52 16.69547 95.00029 29786 ft 509 kts 296°
2026-05-08 08:52 16.72790 94.93440 29786 ft 509 kts 296°
2026-05-08 08:53 16.76019 94.86869 29788 ft 509 kts 296°
2026-05-08 08:53 16.79306 94.80384 29789 ft 509 kts 299°
2026-05-08 08:54 16.83173 94.74161 29791 ft 510 kts 305°
2026-05-08 08:54 16.87535 94.68364 29793 ft 510 kts 308°
2026-05-08 08:55 16.92027 94.62604 29794 ft 510 kts 308°
2026-05-08 08:55 16.96484 94.56879 29795 ft 510 kts 308°
2026-05-08 08:56 17.00943 94.51129 29797 ft 510 kts 308°
2026-05-08 08:56 17.05421 94.45344 29798 ft 509 kts 308°
2026-05-08 08:57 17.09864 94.39600 29799 ft 509 kts 307°
2026-05-08 08:57 17.14319 94.33836 29800 ft 509 kts 307°
2026-05-08 08:58 17.18743 94.28107 29800 ft 508 kts 307°
2026-05-08 08:58 17.23190 94.22344 29800 ft 508 kts 307°
2026-05-08 08:59 17.27617 94.16598 29800 ft 507 kts 307°
2026-05-08 08:59 17.32029 94.10867 29802 ft 506 kts 307°
2026-05-08 09:00 17.36453 94.05117 29802 ft 506 kts 307°
2026-05-08 09:00 17.40857 93.99390 29803 ft 505 kts 307°
2026-05-08 09:01 17.45250 93.93672 29803 ft 505 kts 307°
2026-05-08 09:01 17.49642 93.87954 29803 ft 504 kts 307°
2026-05-08 09:02 17.54055 93.82198 29804 ft 505 kts 307°
2026-05-08 09:02 17.58446 93.76465 29804 ft 506 kts 307°
2026-05-08 09:03 17.62866 93.70693 29804 ft 507 kts 307°
2026-05-08 09:03 17.67280 93.64925 29805 ft 507 kts 307°
2026-05-08 09:04 17.71688 93.59159 29805 ft 507 kts 307°
2026-05-08 09:04 17.76090 93.53400 29806 ft 507 kts 307°
2026-05-08 09:05 17.80499 93.47623 29806 ft 507 kts 307°
2026-05-08 09:05 17.84913 93.41834 29807 ft 507 kts 307°
2026-05-08 09:06 17.89296 93.36080 29808 ft 507 kts 307°
2026-05-08 09:06 17.93713 93.30279 29809 ft 507 kts 307°
2026-05-08 09:07 17.98080 93.24538 29807 ft 506 kts 307°
2026-05-08 09:07 18.02496 93.18727 29806 ft 506 kts 306°
2026-05-08 09:08 18.06867 93.12969 29806 ft 505 kts 306°
2026-05-08 09:08 18.11266 93.07169 29806 ft 504 kts 306°
2026-05-08 09:09 18.15613 93.01427 29806 ft 503 kts 306°
2026-05-08 09:09 18.19975 92.95664 29807 ft 503 kts 306°
2026-05-08 09:10 18.24307 92.89935 29809 ft 503 kts 306°
2026-05-08 09:10 18.28650 92.84188 29810 ft 503 kts 306°
2026-05-08 09:11 18.33017 92.78403 29811 ft 502 kts 306°
2026-05-08 09:11 18.37349 92.72659 29813 ft 502 kts 306°
2026-05-08 09:12 18.41691 92.66894 29811 ft 502 kts 306°
2026-05-08 09:12 18.46020 92.61143 29808 ft 502 kts 306°
2026-05-08 09:13 18.50347 92.55388 29808 ft 502 kts 306°
2026-05-08 09:13 18.54676 92.49627 29810 ft 502 kts 306°
2026-05-08 09:14 18.59014 92.43848 29812 ft 502 kts 306°
2026-05-08 09:14 18.63326 92.38100 29813 ft 502 kts 306°
2026-05-08 09:15 18.67655 92.32324 29814 ft 502 kts 305°
2026-05-08 09:15 18.71970 92.26560 29815 ft 501 kts 305°
2026-05-08 09:16 18.76283 92.20792 29815 ft 501 kts 305°
2026-05-08 09:16 18.80621 92.14986 29816 ft 501 kts 305°
2026-05-08 09:17 18.84926 92.09218 29816 ft 501 kts 305°
2026-05-08 09:17 18.89208 92.03474 29817 ft 500 kts 305°
2026-05-08 09:18 18.93525 91.97663 29818 ft 500 kts 304°
2026-05-08 09:18 18.97769 91.91866 29816 ft 499 kts 304°
2026-05-08 09:19 19.01986 91.86088 29815 ft 499 kts 304°
2026-05-08 09:19 19.06229 91.80276 29817 ft 498 kts 304°
2026-05-08 09:20 19.10459 91.74477 29827 ft 498 kts 304°
2026-05-08 09:20 19.14671 91.68698 29838 ft 497 kts 304°
2026-05-08 09:21 19.18886 91.62907 29841 ft 496 kts 304°
2026-05-08 09:23 19.33599 91.42654 29835 ft 495 kts 304°
2026-05-08 09:23 19.37768 91.36902 29835 ft 495 kts 304°
2026-05-08 09:24 19.41970 91.31101 29837 ft 494 kts 303°
2026-05-08 09:24 19.46161 91.25309 29837 ft 494 kts 303°
2026-05-08 09:25 19.50318 91.19559 29838 ft 494 kts 303°
2026-05-08 09:25 19.54511 91.13753 29838 ft 494 kts 303°
2026-05-08 09:26 19.58676 91.07980 29839 ft 494 kts 303°
2026-05-08 09:26 19.62851 91.02190 29839 ft 494 kts 303°
2026-05-08 09:27 19.67008 90.96418 29840 ft 493 kts 303°
2026-05-08 09:27 19.71171 90.90630 29840 ft 493 kts 303°
2026-05-08 09:28 19.75338 90.84831 29840 ft 493 kts 303°
2026-05-08 09:28 19.79492 90.79043 29841 ft 493 kts 303°
2026-05-08 09:29 19.83641 90.73257 29841 ft 493 kts 303°
2026-05-08 09:29 19.87783 90.67479 29843 ft 492 kts 303°
2026-05-08 09:30 19.91923 90.61694 29842 ft 492 kts 303°
2026-05-08 09:30 19.96066 90.55898 29843 ft 492 kts 303°
2026-05-08 09:31 20.00196 90.50116 29843 ft 492 kts 303°
2026-05-08 09:31 20.04348 90.44301 29843 ft 491 kts 303°
2026-05-08 09:32 20.08457 90.38543 29845 ft 491 kts 303°
2026-05-08 09:32 20.12603 90.32732 29846 ft 490 kts 302°
2026-05-08 09:33 20.16719 90.26949 29844 ft 489 kts 302°
2026-05-08 09:33 20.20811 90.21191 29844 ft 489 kts 302°
2026-05-08 09:34 20.24901 90.15432 29844 ft 489 kts 302°
2026-05-08 09:34 20.29014 90.09634 29845 ft 489 kts 302°
2026-05-08 09:35 20.33113 90.03851 29846 ft 489 kts 302°
2026-05-08 09:35 20.37168 89.98128 29847 ft 480 kts 302°
2026-05-08 09:36 20.41181 89.92452 29847 ft 480 kts 302°
2026-05-08 09:36 20.45192 89.86777 29846 ft 480 kts 302°
2026-05-08 09:37 20.49204 89.81092 29845 ft 480 kts 302°
2026-05-08 09:37 20.53241 89.75367 29909 ft 485 kts 302°
2026-05-08 09:37 20.55260 89.72501 30072 ft 484 kts 302°
2026-05-08 09:38 20.57281 89.69634 30265 ft 483 kts 302°
2026-05-08 09:38 20.59294 89.66781 30438 ft 482 kts 302°
2026-05-08 09:38 20.61309 89.63921 30602 ft 482 kts 302°
2026-05-08 09:38 20.63326 89.61055 30805 ft 482 kts 302°
2026-05-08 09:39 20.65330 89.58206 31033 ft 480 kts 302°
2026-05-08 09:39 20.67342 89.55343 31263 ft 479 kts 302°
2026-05-08 09:39 20.69330 89.52512 31500 ft 478 kts 302°
2026-05-08 09:39 20.71340 89.49648 31742 ft 477 kts 302°
2026-05-08 09:40 20.73320 89.46824 31869 ft 476 kts 302°
2026-05-08 09:40 20.77259 89.41205 31928 ft 473 kts 302°
2026-05-08 09:41 20.81215 89.35555 31889 ft 471 kts 302°
2026-05-08 09:41 20.85133 89.29948 31876 ft 470 kts 301°
2026-05-08 09:42 20.89047 89.24346 31843 ft 470 kts 301°
2026-05-08 09:42 20.92878 89.18692 31826 ft 468 kts 299°
2026-05-08 09:43 20.96536 89.12894 31828 ft 468 kts 298°
2026-05-08 09:43 21.00138 89.07156 31829 ft 467 kts 298°
2026-05-08 09:44 21.03778 89.01349 31831 ft 467 kts 298°
2026-05-08 09:44 21.07400 88.95565 31832 ft 467 kts 298°
2026-05-08 09:45 21.11029 88.89770 31831 ft 467 kts 298°
2026-05-08 09:45 21.14655 88.83975 31831 ft 467 kts 298°
2026-05-08 09:46 21.18243 88.78234 31832 ft 467 kts 298°
2026-05-08 09:46 21.21844 88.72465 31834 ft 466 kts 298°
2026-05-08 09:47 21.25444 88.66691 31836 ft 466 kts 298°
2026-05-08 09:47 21.29037 88.60921 31837 ft 466 kts 298°
2026-05-08 09:48 21.32620 88.55160 31837 ft 465 kts 298°
2026-05-08 09:48 21.36248 88.49402 31837 ft 466 kts 299°
2026-05-08 09:49 21.39914 88.43683 31836 ft 465 kts 299°
2026-05-08 09:49 21.43564 88.37974 31837 ft 465 kts 299°
2026-05-08 09:50 21.47221 88.32242 31840 ft 464 kts 298°
2026-05-08 09:50 21.50866 88.26518 31841 ft 464 kts 298°
2026-05-08 09:51 21.54481 88.20830 31843 ft 463 kts 298°
2026-05-08 09:51 21.58120 88.15098 31843 ft 463 kts 298°
2026-05-08 09:52 21.61738 88.09392 31843 ft 463 kts 298°
2026-05-08 09:52 21.65360 88.03678 31843 ft 463 kts 298°
2026-05-08 09:53 21.68968 87.97980 31843 ft 463 kts 298°
2026-05-08 09:53 21.72579 87.92270 31843 ft 462 kts 298°
2026-05-08 09:54 21.76205 87.86531 31843 ft 462 kts 298°
2026-05-08 09:54 21.79802 87.80833 31843 ft 462 kts 298°
2026-05-08 09:55 21.84023 87.74139 31845 ft 462 kts 298°
2026-05-08 09:55 21.87003 87.69408 31846 ft 462 kts 298°
2026-05-08 09:56 21.90608 87.63678 31844 ft 462 kts 298°
2026-05-08 09:56 21.94218 87.57934 31839 ft 462 kts 298°
2026-05-08 09:57 21.99600 87.49359 31833 ft 462 kts 298°
2026-05-08 09:57 22.03188 87.43636 31831 ft 462 kts 298°
2026-05-08 09:58 22.06785 87.37894 31831 ft 461 kts 298°
2026-05-08 09:58 22.10400 87.32114 31834 ft 460 kts 298°
2026-05-08 09:59 22.13964 87.26411 31835 ft 460 kts 298°
2026-05-08 09:59 22.17530 87.20695 31835 ft 459 kts 298°
2026-05-08 10:00 22.21078 87.15005 31825 ft 459 kts 298°
2026-05-08 10:00 22.24651 87.09271 31811 ft 459 kts 298°
2026-05-08 10:01 22.28189 87.03586 31806 ft 459 kts 298°
2026-05-08 10:01 22.31755 86.97849 31806 ft 458 kts 298°
2026-05-08 10:02 22.35286 86.92163 31815 ft 458 kts 298°
2026-05-08 10:02 22.38856 86.86407 31829 ft 458 kts 298°
2026-05-08 10:03 22.42395 86.80693 31837 ft 458 kts 297°
2026-05-08 10:03 22.45932 86.74970 31841 ft 458 kts 297°
2026-05-08 10:04 22.49462 86.69256 31843 ft 458 kts 297°
2026-05-08 10:04 22.53005 86.63517 31843 ft 458 kts 297°
2026-05-08 10:05 22.56539 86.57789 31845 ft 458 kts 297°
2026-05-08 10:05 22.60046 86.52093 31850 ft 458 kts 297°
2026-05-08 10:06 22.63578 86.46355 31856 ft 458 kts 297°
2026-05-08 10:06 22.67104 86.40619 31860 ft 458 kts 297°
2026-05-08 10:07 22.70612 86.34907 31861 ft 457 kts 297°
2026-05-08 10:07 22.74158 86.29123 31857 ft 457 kts 297°
2026-05-08 10:08 22.77662 86.23387 31848 ft 456 kts 296°
2026-05-08 10:08 22.80801 86.17486 31846 ft 451 kts 291°
2026-05-08 10:09 22.83403 86.11326 31847 ft 447 kts 286°
2026-05-08 10:09 22.85606 86.05041 31848 ft 447 kts 285°
2026-05-08 10:10 22.87785 85.98734 31849 ft 446 kts 285°
2026-05-08 10:10 22.89951 85.92448 31848 ft 446 kts 285°
2026-05-08 10:11 22.92109 85.86184 31850 ft 446 kts 285°
2026-05-08 10:11 22.94268 85.79903 31860 ft 445 kts 285°
2026-05-08 10:12 22.96422 85.73630 31866 ft 445 kts 285°
2026-05-08 10:12 22.98586 85.67320 31870 ft 445 kts 285°
2026-05-08 10:13 23.00731 85.61052 31883 ft 445 kts 285°
2026-05-08 10:13 23.02872 85.54788 31898 ft 444 kts 285°
2026-05-08 10:14 23.05013 85.48515 31884 ft 444 kts 285°
2026-05-08 10:14 23.07157 85.42223 31861 ft 444 kts 285°
2026-05-08 10:15 23.09292 85.35947 31864 ft 443 kts 285°
2026-05-08 10:15 23.11419 85.29681 31883 ft 443 kts 285°